Tracking 27107 objects as of 21-Mar-2023
HD Live streaming from Space Station
objects crossing your sky now

FLOCK 3P 70

Track FLOCK 3P 70 now!
10-day predictions
FLOCK 3P 70 is classified as:


NORAD ID: 41980
Int'l Code: 2017-008AJ
Perigee: 162.5 km
Apogee: 176.9 km
Inclination: 97.2 °
Period: 87.7 minutes
Semi major axis: 6540 km
RCS: Unknown
Launch date: February 15, 2017
Source: United States (US)
Launch site: SRIHARIKOTA (SRI)
Your satellite tracking list
Your tracking list is empty




NASA's NSSDC Master Catalog

Two Line Element Set (TLE):
1 41980U 17008AJ  23078.04276672  .15264798  24261-5  87809-3 0  9999
2 41980  97.2111 153.4793 0011015 275.2694  84.7350 16.41204646339534
Source of the keplerian elements: AFSPC